Waarnemingen

Advertentie
Mijn weer
Nordseeboje II, Duitsland (10008): temperatuur & dauwpunt: 16.02.2017 11:00:00 - 22.02.2017 11:00:00 (CET)Nordseeboje II, Duitsland (10008): water temperatuur: 16.02.2017 11:00:00 - 22.02.2017 11:00:00 (CET)Nordseeboje II, Duitsland (10008): windsnelheid: 16.02.2017 11:00:00 - 22.02.2017 11:00:00 (CET)Nordseeboje II, Duitsland (10008): windrichting: 16.02.2017 11:00:00 - 22.02.2017 11:00:00 (CET)Nordseeboje II, Duitsland (10008): luchtdruk: 16.02.2017 11:00:00 - 22.02.2017 11:00:00 (CET)Nordseeboje II, Duitsland (10008): zicht: 16.02.2017 11:00:00 - 22.02.2017 11:00:00 (CET)
Datum & Tijd tt [°C] td [°C] tw [°C] ff [km/u] ff [kn] dd ppp [hPa] vv [km]
22.02.2017 11:00:00 6,6 3,2 5,8 50 27 W 995,2 -
22.02.2017 10:00:00 6,6 3,6 5,7 50 27 W 995,1 -
22.02.2017 09:00:00 6,8 4,3 5,5 47 25 W 994,9 -
22.02.2017 08:00:00 7,1 4,7 5,9 43 23 W 994,2 -
22.02.2017 07:00:00 7,8 5,7 5,7 54 29 W 993,2 -
22.02.2017 06:00:00 7,8 6,8 5,7 58 31 W 993,0 -
22.02.2017 05:00:00 7,9 6,9 5,7 54 29 W 993,1 -
22.02.2017 04:00:00 7,8 7,1 5,5 61 33 W 993,2 -
22.02.2017 03:00:00 8,1 7,0 5,7 65 35 WZW 993,7 -
22.02.2017 02:00:00 8,0 7,4 5,7 61 33 WZW 994,5 -
22.02.2017 01:00:00 7,7 7,8 5,9 58 31 WZW 995,6 -
22.02.2017 00:00:00 7,0 6,5 5,7 50 27 ZW 997,4 -
21.02.2017 23:00:00 6,6 5,6 5,6 47 25 ZZW 999,9 -
21.02.2017 22:00:00 6,2 4,6 5,9 47 25 ZZW 1002,0 -
21.02.2017 21:00:00 - - 5,6 40 21 ZW 1004,0 -
21.02.2017 20:00:00 5,9 5,0 5,7 36 19 ZW 1005,7 -
21.02.2017 19:00:00 6,0 5,1 5,8 32 18 ZW 1007,0 -
21.02.2017 18:00:00 - - - - - - - -
21.02.2017 17:00:00 6,1 4,9 5,7 32 18 WZW 1008,4 -
21.02.2017 16:00:00 6,2 4,6 5,4 25 14 W 1008,7 -
21.02.2017 15:00:00 6,4 4,5 5,8 32 18 W 1009,0 -
21.02.2017 14:00:00 6,4 4,4 5,8 32 18 WNW 1008,9 -
21.02.2017 13:00:00 6,5 4,3 5,6 40 21 W 1009,0 -
21.02.2017 12:00:00 6,4 4,3 5,5 36 19 WNW 1008,7 -
21.02.2017 11:00:00 6,4 4,7 5,8 40 21 WNW 1008,6 -
21.02.2017 10:00:00 6,5 4,4 5,8 36 19 WNW 1008,1 -
21.02.2017 09:00:00 6,5 4,3 5,9 36 19 WNW 1007,6 -
21.02.2017 08:00:00 6,3 4,8 5,6 40 21 W 1007,0 -
21.02.2017 07:00:00 6,5 4,2 5,7 36 19 W 1006,6 -
21.02.2017 06:00:00 6,7 4,4 5,6 36 19 WNW 1006,4 -
21.02.2017 05:00:00 6,6 4,4 5,8 36 19 W 1006,1 -
21.02.2017 04:00:00 6,7 4,8 5,7 40 21 WNW 1006,2 -
21.02.2017 03:00:00 6,8 5,2 5,8 36 19 W 1005,8 -
21.02.2017 02:00:00 - - - - - - - -
21.02.2017 01:00:00 6,9 5,4 5,9 36 19 W 1006,0 -
21.02.2017 00:00:00 7,0 5,6 5,8 40 21 W 1005,9 -
20.02.2017 23:00:00 6,9 5,7 5,8 32 18 W - -
20.02.2017 22:00:00 7,1 5,9 5,8 32 18 WNW 1005,9 -
20.02.2017 21:00:00 7,1 6,1 5,9 32 18 WNW 1005,5 -
20.02.2017 20:00:00 7,3 6,4 - 43 23 WNW 1005,1 -
20.02.2017 19:00:00 7,5 6,5 5,9 40 21 WNW 1004,6 -
20.02.2017 18:00:00 7,8 6,7 5,8 47 25 W 1003,6 -
20.02.2017 17:00:00 8,0 7,0 5,8 47 25 W 1003,3 -
20.02.2017 16:00:00 7,8 6,7 5,7 50 27 W 1003,0 -
20.02.2017 15:00:00 8,0 6,9 5,8 47 25 W 1003,5 -
20.02.2017 14:00:00 8,0 7,2 5,9 47 25 W 1003,9 -
20.02.2017 13:00:00 7,6 7,0 5,6 43 23 WZW 1004,6 -
20.02.2017 12:00:00 7,4 6,8 5,7 40 21 W 1005,5 -
20.02.2017 11:00:00 7,3 6,7 5,8 40 21 W 1005,6 -
20.02.2017 10:00:00 7,2 6,6 5,7 36 19 W 1006,3 -
20.02.2017 09:00:00 7,2 6,7 5,7 36 19 WZW 1006,8 -
20.02.2017 08:00:00 7,2 6,6 5,8 40 21 W 1007,1 -
20.02.2017 07:00:00 7,1 6,5 5,6 40 21 W 1007,1 -
20.02.2017 06:00:00 6,9 6,3 5,7 43 23 WZW 1007,7 -
20.02.2017 05:00:00 6,8 6,2 5,7 43 23 WZW 1008,5 -
20.02.2017 04:00:00 6,7 5,9 5,7 40 21 WZW 1009,3 1,1
20.02.2017 03:00:00 6,8 6,2 5,7 36 19 WZW 1010,6 -
20.02.2017 02:00:00 6,8 6,8 5,7 40 21 WZW 1012,0 -
20.02.2017 01:00:00 6,5 6,5 5,6 32 18 WZW 1012,8 -
20.02.2017 00:00:00 6,1 5,9 5,6 29 16 WZW 1013,1 -
19.02.2017 23:00:00 5,6 5,5 5,7 36 19 WZW 1014,2 -
19.02.2017 22:00:00 5,3 4,9 5,5 36 19 WZW 1014,6 -
19.02.2017 21:00:00 5,5 4,8 5,7 25 14 W 1014,8 -
19.02.2017 20:00:00 6,5 5,2 5,6 18 10 W 1015,0 -
19.02.2017 19:00:00 6,4 5,5 5,8 25 14 W 1015,4 -
19.02.2017 18:00:00 - - - - - - - -
19.02.2017 17:00:00 6,3 5,6 5,7 29 16 W 1014,6 -
19.02.2017 16:00:00 6,4 5,6 5,7 29 16 W 1014,5 -
19.02.2017 15:00:00 6,4 5,6 5,7 29 16 W 1014,5 -
19.02.2017 14:00:00 6,6 5,7 5,8 22 12 W 1014,8 -
19.02.2017 13:00:00 6,5 5,5 5,8 25 14 W 1014,4 -
19.02.2017 12:00:00 6,6 5,7 5,7 29 16 WNW 1014,7 -
19.02.2017 11:00:00 6,6 5,7 5,8 29 16 W 1014,5 -
19.02.2017 10:00:00 6,7 5,8 5,8 29 16 W 1014,3 -
19.02.2017 09:00:00 6,8 6,0 5,7 32 18 W 1013,9 -
19.02.2017 08:00:00 6,7 6,1 5,7 32 18 W 1013,4 -
19.02.2017 07:00:00 6,6 5,9 5,7 36 19 W 1013,1 -
19.02.2017 06:00:00 6,4 5,9 5,6 32 18 WZW 1013,6 -
19.02.2017 05:00:00 6,2 5,8 5,7 36 19 WZW 1013,9 -
19.02.2017 04:00:00 6,3 5,6 5,6 36 19 WZW 1014,2 -
19.02.2017 03:00:00 6,3 5,6 5,6 40 21 WZW 1015,1 -
19.02.2017 02:00:00 6,1 5,5 5,7 40 21 WZW 1015,9 -
19.02.2017 01:00:00 6,0 5,4 5,9 43 23 WZW 1016,6 -
19.02.2017 00:00:00 5,8 5,1 5,8 43 23 ZW 1017,5 -
18.02.2017 23:00:00 5,7 4,8 5,7 43 23 WZW 1018,3 -
18.02.2017 22:00:00 - - 5,7 47 25 WZW 1018,7 -
18.02.2017 21:00:00 5,7 4,6 5,7 50 27 ZW 1018,7 -
18.02.2017 20:00:00 5,7 4,9 5,6 47 25 ZW 1019,5 -
18.02.2017 19:00:00 5,6 4,8 5,7 47 25 ZW 1020,1 -
18.02.2017 18:00:00 5,1 4,5 5,8 47 25 ZW 1020,4 -
18.02.2017 17:00:00 5,1 4,4 5,7 43 23 ZW 1020,7 -
18.02.2017 16:00:00 5,0 4,4 5,7 40 21 ZW 1021,4 -
18.02.2017 15:00:00 5,1 4,5 5,7 40 21 ZW 1022,0 -
18.02.2017 14:00:00 4,8 4,3 5,7 36 19 ZW 1022,6 -
18.02.2017 13:00:00 4,4 3,9 5,8 40 21 ZW 1023,6 -
18.02.2017 12:00:00 4,3 3,6 5,8 32 18 ZW 1024,2 -
18.02.2017 11:00:00 4,3 3,3 5,7 29 16 WZW 1024,4 -
18.02.2017 10:00:00 4,4 3,4 5,6 25 14 WZW 1024,5 -
18.02.2017 09:00:00 4,3 3,4 5,6 25 14 WZW 1024,6 -
18.02.2017 08:00:00 4,5 3,3 5,7 25 14 W 1024,7 -
18.02.2017 07:00:00 4,5 3,4 5,6 22 12 W 1024,7 -
18.02.2017 06:00:00 4,5 3,2 5,6 22 12 W 1024,9 -
18.02.2017 05:00:00 4,9 3,8 5,7 25 14 W 1024,8 -
18.02.2017 04:00:00 4,7 3,9 5,7 25 14 W 1025,0 -
18.02.2017 03:00:00 5,4 4,5 5,7 25 14 W 1025,3 -
18.02.2017 02:00:00 4,8 4,2 5,7 25 14 WNW 1025,2 -
18.02.2017 01:00:00 4,7 4,1 5,8 22 12 WNW 1025,2 -
18.02.2017 00:00:00 5,0 4,2 5,7 22 12 NW 1025,1 -
17.02.2017 23:00:00 5,5 4,5 5,8 25 14 NW 1025,2 -
17.02.2017 22:00:00 5,8 4,8 5,8 29 16 NW 1025,1 -
17.02.2017 21:00:00 6,0 5,1 5,7 29 16 NW 1024,8 -
17.02.2017 20:00:00 5,9 5,1 5,6 25 14 WNW 1024,4 -
17.02.2017 19:00:00 5,9 5,2 5,6 25 14 NW 1024,0 -
17.02.2017 18:00:00 6,1 5,3 5,4 22 12 NW 1023,4 -
17.02.2017 17:00:00 6,3 5,3 5,6 25 14 NW 1023,1 -
17.02.2017 16:00:00 6,4 5,5 5,5 29 16 NNW 1022,6 -
17.02.2017 15:00:00 6,4 5,7 5,6 25 14 NNW 1022,4 -
17.02.2017 14:00:00 6,1 5,6 5,5 25 14 NNW 1022,2 -
17.02.2017 13:00:00 6,2 5,4 5,6 22 12 NW 1021,9 -
17.02.2017 12:00:00 6,2 5,7 5,6 22 12 NNW 1021,6 -
17.02.2017 11:00:00 6,0 5,6 5,6 22 12 NNW 1021,1 -
17.02.2017 10:00:00 6,1 5,7 5,4 25 14 NNW 1020,5 -
17.02.2017 09:00:00 6,0 5,7 5,4 29 16 NNW 1019,5 -
17.02.2017 08:00:00 5,9 5,6 5,6 25 14 NW 1018,6 -
17.02.2017 07:00:00 6,0 5,6 5,6 22 12 NW 1017,7 -
17.02.2017 06:00:00 6,1 5,6 5,6 25 14 NW 1017,4 -
17.02.2017 05:00:00 6,1 5,6 5,5 29 16 WNW 1017,0 -
17.02.2017 04:00:00 6,1 5,6 5,5 29 16 W 1016,9 -
17.02.2017 03:00:00 6,3 5,6 5,5 32 18 W 1017,1 -
17.02.2017 02:00:00 6,4 5,6 5,6 32 18 W 1017,3 -
17.02.2017 01:00:00 6,6 5,7 5,5 36 19 W 1017,6 -
17.02.2017 00:00:00 6,2 5,6 5,5 32 18 WZW 1018,1 -
16.02.2017 23:00:00 6,1 5,3 5,7 32 18 WZW 1019,0 -
16.02.2017 22:00:00 6,2 5,2 5,7 32 18 WZW 1019,6 -
16.02.2017 21:00:00 6,2 5,3 5,7 32 18 WZW 1020,1 -
16.02.2017 20:00:00 - - - - - - - -
16.02.2017 19:00:00 6,2 5,1 5,5 32 18 WZW 1021,0 -
16.02.2017 18:00:00 6,2 5,1 5,7 32 18 WZW 1021,1 -
16.02.2017 17:00:00 6,2 5,1 5,8 32 18 WZW 1021,2 -
16.02.2017 16:00:00 6,5 5,3 5,7 29 16 WZW 1021,4 -
16.02.2017 15:00:00 6,5 5,4 5,6 29 16 WZW 1021,8 -
16.02.2017 14:00:00 6,5 5,5 5,6 32 18 WZW 1022,4 -
16.02.2017 13:00:00 6,5 5,6 5,7 32 18 WZW 1022,8 -
16.02.2017 12:00:00 6,5 5,7 5,7 32 18 WZW 1023,3 -
16.02.2017 11:00:00 6,6 5,8 5,7 40 21 WZW 1023,2 -

tt = temperatuur
td = dauwpunt
tw = water temperatuur
ff = windsnelheid
dd = windrichting
ppp = luchtdruk
vv = zicht

Weerstations in de omgeving